Starlink 1492

decayed
NORAD ID: 45779 Int'l Des: 2020-038 Owner: SPXS Country: US Constellation: starlink
LEOCIRCULAR
グループ

Starlink 1492について

説明を読み込み中...

高度履歴

Altitude vs Time

uPlot chart will show altitude changes over time

軌道要素

1 45779U 20038BB 25027.96052733 .08979875 12465-4 40127-3 0 9998
2 45779 52.9848 57.5311 0004766 82.9567 347.1806 16.43238580258950
Epoch: Jan 27, 2025 • Age: 7676 hours

現在のステータス

Position data unavailable
打ち上げ日 Jun 13, 2020
運用期間 5.5 years
落下予定日 Jan 28, 2025
タイプ internet

技術仕様

分類 Payload
質量 260.00 kg
乾燥質量 248.00 kg
総質量 260.00 kg
長さ 0.20 m
直径 2.80 m
スパン 9.00 m
形状 Box + pan
製造者 SPXS
バスタイプ Starlink
フェーズステータス Reentered
所有者/国 SPXS/US

大規模コンステレーション

Loading constellations...